Home > Weather > Antwerp > Past weeks

Flag for Belgium Past Weather in Antwerp, Belgium — Yesterday and Last 2 Weeks

Now
55 °F

Passing clouds.


Feels Like: 54 °F
Forecast: 55 / 65 °F
Wind: 6 mph from Southwest

Location: Antwerp / Deurne

Current Time: Jun 25, 2016 at 11:23:28 PM

Latest Report: Jun 25, 2016 at 10:50 PM


Visibility: N/A

Pressure: 30.04 "Hg

Humidity: 88%

Dew Point: 52 °F

Location of AntwerpLocation

Past Weather in Antwerp — Graph

°F

Antwerp Temperature Yesterday

Maximum temperature yesterday: 73 °F (at 2:20 PM)
Minimum temperature yesterday: 63 °F (at 11:50 PM)
Average temperature yesterday: 69 °F

High & Low Weather Summary for the Past Weeks

 TemperatureHumidityPressure
High84 °F (Jun 23, 4:20 PM)89% (Jun 23, 8:50 PM)30.30 "Hg (Jun 23, 8:50 PM)
Low48 °F (Jun 16, 5:20 AM)49% (Jun 16, 11:50 AM)29.45 "Hg (Jun 14, 7:20 PM)
Average63 °F75%29.88 "Hg
* Reported Jun 10 9:20 PM — Jun 25 9:50 PM, Antwerp, Weather by CustomWeather, © 2016

Note: Actual official high and low records may vary slightly from our data, if they occured in-between our weather recording intervals... More about our weather records

Advertising

Antwerp Weather History for the Previous 24 Hours

Scroll right to see more
 ConditionsComfort  
Time TempWeatherWind HumidityBarometerVisibility
9:50 PM
Sat, Jun 25
57 °FPassing clouds.3 mph82%30.04 "HgN/A
9:20 PM55 °FPassing clouds.1 mph88%30.04 "HgN/A
8:50 PM57 °FPassing clouds.3 mph77%30.04 "HgN/A
8:20 PM55 °FStrong thunderstorms. Broken clouds.15 mph82%30.04 "Hg2 mi
7:50 PM61 °FPassing clouds.2 mph77%30.01 "HgN/A
7:20 PM61 °FPassing clouds.2 mph77%30.01 "HgN/A
6:50 PM61 °FSprinkles. Partly sunny.1 mph77%30.01 "HgN/A
6:20 PM61 °FThunderstorms. Partly sunny.16 mph72%30.04 "Hg3 mi
5:50 PM64 °FScattered clouds.3 mph64%30.01 "HgN/A
5:20 PM64 °FPassing clouds.6 mph64%30.01 "HgN/A
4:50 PM64 °FPassing clouds.5 mph60%30.01 "HgN/A
4:20 PM64 °FPassing clouds.3 mph60%30.01 "HgN/A
3:50 PM64 °FPassing clouds.6 mph60%30.01 "HgN/A
3:20 PM64 °FScattered clouds.7 mph64%30.01 "HgN/A
2:50 PM64 °FPassing clouds.5 mph68%30.01 "HgN/A
2:20 PM63 °FPassing clouds.5 mph68%30.01 "HgN/A
1:50 PM63 °FScattered clouds.7 mph73%30.01 "HgN/A
1:20 PM63 °FScattered clouds.8 mph73%30.01 "HgN/A
12:50 PM63 °FLight rain. Scattered clouds.10 mph73%30.01 "HgN/A
12:20 PM63 °FPassing clouds.9 mph73%30.01 "HgN/A
11:50 AM63 °FPassing clouds.9 mph68%30.01 "HgN/A
11:20 AM63 °FPassing clouds.7 mph73%30.01 "HgN/A
10:50 AM61 °FPassing clouds.8 mph72%30.01 "HgN/A
10:20 AM61 °FPassing clouds.8 mph77%30.01 "HgN/A
9:50 AM63 °FPassing clouds.6 mph73%30.01 "HgN/A
9:20 AM63 °FPassing clouds.8 mph73%30.01 "HgN/A
8:50 AM61 °FSunny.7 mph72%30.01 "Hg10 mi
8:20 AM61 °FPassing clouds.6 mph72%30.01 "HgN/A
7:50 AM59 °FPassing clouds.5 mph77%30.01 "HgN/A
7:20 AM59 °FPassing clouds.6 mph77%30.04 "HgN/A
6:50 AM59 °FScattered clouds.7 mph77%30.04 "HgN/A
6:20 AM59 °FPassing clouds.3 mph77%30.04 "HgN/A
5:50 AM59 °FPassing clouds.3 mph77%30.04 "HgN/A
5:20 AM59 °FPassing clouds.6 mph72%30.04 "HgN/A
4:50 AM61 °FPassing clouds.7 mph72%30.04 "HgN/A
4:20 AM61 °FPassing clouds.9 mph72%30.04 "HgN/A
3:50 AM61 °FPassing clouds.6 mph72%30.04 "HgN/A
3:20 AM61 °FClear.7 mph72%30.07 "Hg10 mi
2:50 AM61 °FPassing clouds.6 mph72%30.07 "HgN/A
2:20 AM61 °FPassing clouds.7 mph72%30.07 "HgN/A
1:50 AM63 °FClear.8 mph68%30.07 "Hg10 mi
1:20 AM63 °FClear.5 mph73%30.07 "Hg10 mi
12:50 AM63 °FClear.8 mph73%30.09 "Hg10 mi
12:20 AM63 °FClear.8 mph73%30.07 "Hg10 mi
11:50 PM
Fri, Jun 24
63 °FClear.9 mph73%30.09 "Hg10 mi
11:20 PM64 °FPassing clouds.7 mph73%30.09 "HgN/A
Weather by CustomWeather, © 2016

See weather overviewHow to use our weather pages